[[{"header":{"parameterUnit":"m.s-1","parameterCategory":1,"la1":30.2991,"la2":30.254,"lo1":-89.0895,"lo2":-89.0444,"dy":0.0017,"dx":0.0017,"nx":28,"ny":28,"refTime":"2025-08-05T03:00:00:Z","depth":0,"parameterNumber":2,"parameterNumberName":"U-component_of_WINDS"},"data":[0,0,0,0,0,0,0,0,0,0,0,0,0,0,0,0,0,0,0,0,0,0,0,0,0,0,0,0,0,0,0,0,0,0,0,0,0,0,0,0,0,0,0,0,0,0,0,0,0,0,0,0,0,0,0,0,0,0,0.1364,0.1365,0,0.1457,0.1458,0.1459,0.1454,0.1453,0.1452,0.145,0.1551,0.1555,0.1559,0,0,0,0,0,0,0,0,0,0,0,0,0,0.1186,0.119,0.1364,0.1365,0.1366,0.1457,0.1458,0.146,0.1455,0.1453,0.1451,0.145,0.155,0.1554,0.1559,0,0,0,0,0,0,0,0,0,0,0,0,0,0.127,0.1191,0.1363,0.1374,0.1376,0.1457,0.1458,0.146,0.1455,0.1453,0.1451,0.1449,0.1548,0.1554,0.156,0.1637,0,0,0.1578,0.1581,0,0,0,0,0,0,0,0,0.1265,0.1277,0.1372,0.1374,0.1376,0.1442,0.1433,0.152,0.1455,0.1425,0.145,0.1448,0.1517,0.1525,0.1547,0.1642,0.1646,0.1579,0.1582,0.1585,0.1586,0,0,0,0,0,0,0,0.126,0.1273,0.1401,0.1373,0.1376,0.1376,0.1386,0.1449,0.1481,0.1428,0.1427,0.1438,0.1518,0.1542,0.155,0.1648,0.1578,0.1584,0.1587,0.159,0.1813,0.1816,0,0,0,0,0,0,0.1251,0.1268,0.1398,0.1404,0.1314,0.1381,0.1392,0.1423,0.1481,0.1487,0.144,0.1438,0.1532,0.1543,0.1553,0.165,0.1585,0.159,0.1594,0.1811,0.1814,0.1817,0,0,0,0,0,0,0.1247,0.1262,0.1394,0.1336,0.1352,0.1386,0.1421,0.1426,0.145,0.149,0.1496,0.1458,0.1531,0.1545,0.1617,0.1653,0.1593,0.1598,0.1808,0.1812,0.1815,0.1842,0,0,0,0,0,0,0.1242,0.1261,0.1289,0.1336,0.1356,0.1454,0.1423,0.1429,0.1459,0.1457,0.1509,0.1515,0.1531,0.1608,0.1623,0.166,0.1603,0.1805,0.181,0.1814,0.1838,0.1846,0.1853,0,0,0,0,0,0.1235,0.1294,0.1291,0.1306,0.1391,0.1456,0.1468,0.1483,0.1462,0.1492,0.1518,0.1514,0.1646,0.1615,0.1632,0.1672,0.1803,0.1809,0.1814,0.1835,0.1844,0.1852,0,0,0,0,0,0,0.1251,0.13,0.1297,0.1372,0.141,0.1455,0.1493,0.1492,0.1538,0.1534,0.1552,0.1564,0.1637,0.1661,0.1626,0.1751,0.1722,0.1731,0.1732,0.1742,0.1749,0.1743,0.1608,0,0,0,0,0,0.1263,0.131,0.1351,0.1413,0.1432,0.1459,0.1488,0.1496,0.1537,0.1554,0.1585,0.1626,0.1677,0.1711,0.176,0.1841,0.1854,0.1877,0.1884,0.189,0.1898,0.1945,0.1957,0.1834,0.1834,0.1834,0,0,0.1289,0.1321,0.135,0.1417,0.1447,0.1498,0.1473,0.1527,0.1565,0.1562,0.1632,0.1657,0.1704,0.1781,0.1817,0.1804,0.1934,0.1897,0.1901,0.1906,0.1952,0.1964,0.1974,0.1838,0.1837,0.1837,0,0,0.1362,0.139,0.1446,0.1477,0.1523,0.1541,0.1554,0.16,0.1616,0.1686,0.1685,0.1732,0.1819,0.1853,0.1882,0.1969,0.1968,0.1984,0.2024,0.207,0.208,0.2088,0.2122,0.2133,0.1992,0.1992,0.1992,0,0.1389,0.1463,0.1475,0.153,0.156,0.1558,0.1617,0.1647,0.1707,0.1729,0.1713,0.1823,0.1855,0.1941,0.1962,0.1985,0.2003,0.198,0.2077,0.2086,0.2094,0.2126,0.2139,0.1994,0.1994,0.1994,0.1993,0,0.1495,0.1546,0.1586,0.1643,0.1678,0.1734,0.1757,0.1791,0.1796,0.1817,0.189,0.1927,0.1985,0.2006,0.2012,0.2094,0.2085,0.2072,0.2045,0.2107,0.2138,0.2151,0.1997,0.1996,0.1996,0.1995,0,0,0.1581,0.1644,0.1659,0.1686,0.1737,0.1778,0.1835,0.189,0.192,0.1961,0.2012,0.2085,0.2075,0.2108,0.2118,0.2157,0.2227,0.2141,0.2142,0.2158,0.2323,0.2334,0.2348,0.2225,0.2228,0.223,0.232,0,0.1661,0.176,0.1774,0.1863,0.1912,0.1911,0.1961,0.1999,0.202,0.2066,0.209,0.2143,0.2123,0.2144,0.2183,0.221,0.2261,0.2204,0.2275,0.2277,0.2265,0.2363,0.2374,0.2458,0.2332,0.2334,0.2335,0,0.1768,0.1812,0.1905,0.1951,0.1972,0.2017,0.2069,0.2112,0.2156,0.2169,0.2205,0.2211,0.2272,0.224,0.2326,0.2287,0.2317,0.2335,0.2339,0.2348,0.2312,0.2378,0.2485,0.2498,0.2354,0.2352,0.2351,0,0.1825,0.1907,0.1974,0.1997,0.2051,0.2083,0.2107,0.2149,0.2181,0.2228,0.225,0.2303,0.2333,0.2375,0.2395,0.237,0.2482,0.245,0.2496,0.2496,0.2522,0.252,0.2637,0.2537,0.2536,0.2536,0.2536,0,0.1914,0.1972,0.2001,0.2042,0.2108,0.2123,0.2189,0.2212,0.2249,0.2297,0.23,0.2345,0.2368,0.2418,0.2434,0.2505,0.2517,0.2531,0.2535,0.2532,0.2531,0.2554,0.255,0.254,0.2539,0.2538,0.2538,0,0.1989,0.201,0.2084,0.2129,0.2142,0.2189,0.2229,0.227,0.229,0.2351,0.2366,0.2399,0.2457,0.2481,0.2553,0.2564,0.2646,0.2644,0.2631,0.2633,0.2678,0.2675,0.2817,0.2837,0.272,0.2721,0.2722,0,0.2046,0.2091,0.214,0.2172,0.2197,0.2248,0.2281,0.2299,0.2334,0.2387,0.2423,0.2481,0.2529,0.2623,0.2654,0.271,0.2711,0.2757,0.272,0.2716,0.2715,0.2713,0.2719,0.2765,0.2766,0.2767,0.2767,0,0.2146,0.2154,0.2201,0.2253,0.2292,0.2334,0.2375,0.2401,0.2425,0.2464,0.2523,0.256,0.2633,0.2692,0.2749,0.2777,0.2778,0.2779,0.2793,0.2791,0.2783,0.2791,0.2653,0.2776,0.2775,0.2774,0.2774,0.2774,0.2215,0.2256,0.2297,0.235,0.2383,0.2421,0.2463,0.2488,0.2537,0.2597,0.2605,0.2669,0.2713,0.279,0.282,0.2872,0.2861,0.288,0.2886,0.2891,0.2895,0.2772,0.2882,0.2882,0.2882,0.2882,0.2882,0,0.2317,0.2344,0.2392,0.2449,0.2491,0.2486,0.2531,0.2568,0.2623,0.2664,0.2711,0.278,0.2837,0.2873,0.2931,0.2966,0.2968,0.2981,0.298,0.2987,0.2901,0.2884,0.2978,0.2978,0.2978,0.2978,0.2978,0.2978,0.2375,0.2444,0.2457,0.2543,0.257,0.2632,0.2659,0.2695,0.2728,0.2804,0.2851,0.2873,0.2913,0.2974,0.3027,0.3037,0.3059,0.3074,0.3083,0.3002,0.2992,0.2983,0.2967,0.3078,0.3078,0.3164,0.3165,0.3166]},{"header":{"parameterUnit":"m.s-1","parameterCategory":1,"la1":30.2991,"la2":30.254,"lo1":-89.0895,"lo2":-89.0444,"dy":0.0017,"dx":0.0017,"nx":28,"ny":28,"refTime":"2025-08-05T03:00:00:Z","depth":0,"parameterNumber":3,"parameterNumberName":"V-component_of_WINDS"},"data":[0,0,0,0,0,0,0,0,0,0,0,0,0,0,0,0,0,0,0,0,0,0,0,0,0,0,0,0,0,0,0,0,0,0,0,0,0,0,0,0,0,0,0,0,0,0,0,0,0,0,0,0,0,0,0,0,0,0,1.9663,1.9663,0,1.9666,1.9666,1.9666,1.9691,1.9692,1.9693,1.9693,1.9694,1.9693,1.9693,0,0,0,0,0,0,0,0,0,0,0,0,0,1.968,1.9679,1.9663,1.9663,1.9663,1.9666,1.9666,1.9666,1.9691,1.9692,1.9693,1.9694,1.9694,1.9693,1.9693,0,0,0,0,0,0,0,0,0,0,0,0,0,1.9676,1.9679,1.9663,1.9676,1.9677,1.9666,1.9666,1.9666,1.9691,1.9692,1.9693,1.9694,1.9694,1.9693,1.9692,1.9667,0,0,1.969,1.9689,0,0,0,0,0,0,0,0,1.9676,1.9676,1.9674,1.9675,1.9677,1.9679,1.9672,1.9666,1.9691,1.9686,1.9693,1.9694,1.9688,1.9688,1.9686,1.9667,1.9668,1.969,1.9689,1.9689,1.9689,0,0,0,0,0,0,0,1.9677,1.9676,1.9664,1.9674,1.9676,1.9682,1.9682,1.9671,1.9681,1.9686,1.9688,1.9688,1.9689,1.9687,1.9686,1.9668,1.969,1.9689,1.9688,1.9688,1.963,1.9629,0,0,0,0,0,0,1.9675,1.9676,1.9664,1.9664,1.9679,1.9681,1.9681,1.9677,1.9682,1.9683,1.9687,1.9689,1.9688,1.9687,1.9686,1.9658,1.9689,1.9688,1.9687,1.9631,1.963,1.9629,0,0,0,0,0,0,1.9676,1.9674,1.9664,1.967,1.967,1.9679,1.9675,1.9677,1.9675,1.9682,1.9684,1.9683,1.9689,1.9687,1.9672,1.9658,1.9688,1.9687,1.9632,1.9631,1.9629,1.9601,0,0,0,0,0,0,1.9676,1.9674,1.9665,1.967,1.9669,1.965,1.9674,1.9676,1.9673,1.9676,1.9679,1.9681,1.9689,1.9674,1.9671,1.9658,1.9686,1.9634,1.9632,1.963,1.9603,1.9598,1.9595,0,0,0,0,0,1.9676,1.9656,1.9664,1.9662,1.9658,1.9649,1.9649,1.9659,1.9672,1.9663,1.9668,1.968,1.966,1.9672,1.967,1.9655,1.9634,1.9632,1.963,1.9605,1.9599,1.9595,0,0,0,0,0,0,1.9647,1.9657,1.9666,1.9646,1.9647,1.9653,1.9642,1.9653,1.9649,1.9652,1.9665,1.9666,1.9649,1.9651,1.9663,1.9632,1.965,1.9647,1.9631,1.9626,1.9622,1.9622,1.9685,0,0,0,0,0,1.9639,1.9631,1.964,1.9622,1.9622,1.9632,1.9628,1.9637,1.9638,1.9638,1.9642,1.9642,1.9636,1.9631,1.9626,1.9604,1.9605,1.9593,1.9589,1.9585,1.9582,1.9572,1.9567,1.9621,1.9621,1.9621,0,0,1.962,1.9625,1.9619,1.9616,1.9617,1.9609,1.9632,1.9622,1.9616,1.9636,1.9622,1.9625,1.9626,1.9608,1.96,1.9609,1.9568,1.9582,1.958,1.9579,1.9569,1.9564,1.9559,1.962,1.962,1.962,0,0,1.9583,1.9586,1.9572,1.9573,1.9575,1.9582,1.9579,1.9584,1.9587,1.9574,1.959,1.9583,1.9571,1.9572,1.957,1.9535,1.9547,1.9533,1.9511,1.9501,1.9497,1.9493,1.9481,1.9476,1.9531,1.9531,1.9531,0,1.956,1.9549,1.9563,1.9552,1.9551,1.957,1.9556,1.9556,1.9556,1.9555,1.9565,1.9553,1.9554,1.9537,1.9528,1.9527,1.9523,1.9533,1.9496,1.9493,1.9489,1.9478,1.9473,1.9529,1.9529,1.9529,1.9529,0,1.9521,1.9513,1.9501,1.9502,1.9499,1.9487,1.9499,1.9494,1.9503,1.951,1.9496,1.9499,1.9496,1.9492,1.9501,1.9476,1.9482,1.9494,1.9512,1.9482,1.9472,1.9468,1.9527,1.9527,1.9528,1.9528,0,0,1.9464,1.9474,1.9469,1.9471,1.9475,1.9469,1.9458,1.9456,1.9452,1.9451,1.9443,1.9434,1.9446,1.9444,1.9453,1.9444,1.9417,1.9457,1.9458,1.945,1.9391,1.9382,1.9377,1.9425,1.9424,1.9423,1.9391,0,1.9429,1.9411,1.9423,1.9403,1.9397,1.9416,1.9406,1.9408,1.9414,1.9409,1.9415,1.9409,1.9424,1.9424,1.9416,1.9422,1.9405,1.9424,1.9417,1.9416,1.9416,1.9371,1.9361,1.933,1.9387,1.9386,1.9386,0,1.9385,1.9384,1.9363,1.9371,1.9369,1.936,1.9359,1.9354,1.9357,1.9362,1.9361,1.9373,1.9363,1.9381,1.9367,1.938,1.9378,1.9381,1.938,1.9379,1.9399,1.937,1.9321,1.9316,1.938,1.938,1.9381,0,1.9346,1.934,1.9327,1.9327,1.9335,1.9329,1.9332,1.9336,1.9334,1.9333,1.9332,1.933,1.9329,1.9327,1.9338,1.935,1.9323,1.9342,1.9327,1.9327,1.932,1.932,1.927,1.9319,1.9319,1.9319,1.9319,0,1.9305,1.9292,1.931,1.9302,1.9288,1.9303,1.9288,1.9293,1.9297,1.9291,1.9307,1.93,1.9315,1.931,1.9319,1.9307,1.9306,1.931,1.9312,1.9308,1.9308,1.9307,1.931,1.9318,1.9318,1.9318,1.9318,0,1.9259,1.927,1.9258,1.9267,1.9269,1.9259,1.9267,1.926,1.9268,1.9259,1.9258,1.927,1.9265,1.9276,1.9273,1.9279,1.9262,1.9267,1.9261,1.9263,1.9247,1.9249,1.9195,1.9189,1.9241,1.924,1.924,0,1.9232,1.9222,1.9231,1.9229,1.9231,1.9226,1.9225,1.9239,1.9237,1.9241,1.9233,1.923,1.9229,1.922,1.9228,1.9226,1.9232,1.9214,1.9232,1.9229,1.9233,1.9233,1.9233,1.921,1.9209,1.9209,1.9208,0,1.9183,1.9189,1.9187,1.9187,1.9185,1.9185,1.9187,1.9183,1.9199,1.9196,1.9192,1.9191,1.9188,1.9185,1.9185,1.9188,1.9201,1.9203,1.9199,1.9195,1.9192,1.9194,1.9251,1.9203,1.9204,1.9204,1.9205,1.9205,1.9145,1.9138,1.9144,1.9141,1.9144,1.9146,1.914,1.9148,1.9145,1.9145,1.9153,1.9148,1.9152,1.9154,1.9156,1.9152,1.916,1.9155,1.9154,1.9152,1.915,1.9193,1.9152,1.9152,1.9152,1.9152,1.9152,0,1.9098,1.9103,1.91,1.9102,1.91,1.9114,1.9116,1.9114,1.9109,1.9112,1.9111,1.9107,1.9104,1.9113,1.9112,1.9107,1.9113,1.9106,1.9107,1.9107,1.9142,1.9145,1.9101,1.9102,1.9102,1.9102,1.9102,1.9102,1.9073,1.9062,1.9069,1.9061,1.9066,1.9061,1.9062,1.9063,1.9066,1.9061,1.906,1.9066,1.9071,1.9071,1.907,1.9073,1.9071,1.9063,1.9067,1.91,1.9105,1.9109,1.9113,1.9062,1.9062,1.9033,1.9033,1.9033]}]]